Location: Champignolles
(47.0543°N, 4.5663°E)
Time: 01:26:34
(UTC+00:00)

Envisat - Pass Details

Date: 08 March 2021
Orbit: 764 x 766 km, 98.1° (Epoch: 11 April)

Event Time Altitude Azimuth Distance (km) Brightness Sun altitude
Rises 05:11:48 0° 16° (NNE) 3,244 6.5 -10.4°
Reaches altitude 10° 05:14:09 10° 20° (NNE) 2,313 5.8 -10.0°
Maximum altitude 05:19:12 62° 101° (E) 859 3.6 -9.2°
Drops below altitude 10° 05:24:13 10° 182° (S) 2,295 5.4 -8.3°
Sets 05:26:32 0° 186° (S) 3,216 6.2 -7.9°
